Home   Weather   Fort Wayne   Past weeks

Flag for USA Past Weather in Fort Wayne, Indiana, USA — Yesterday and Last 2 Weeks

Now
65 °F

Partly sunny.


Feels Like: 65 °F
Forecast: 56 / 63 °F
Wind: 6 mph from North

Location: Fort Wayne International Airport

Current Time: Feb 23, 2017 at 1:45:34 pm

Latest Report: Feb 23, 2017 at 12:54 pm


Visibility: 10 mi

Pressure: 29.75 "Hg

Humidity: 54%

Dew Point: 48 °F

Location of Fort WayneLocation

Past Weather in Fort Wayne — Graph

°F

Fort Wayne Temperature Yesterday

Maximum temperature yesterday: 63 °F (at 2:54 pm)
Minimum temperature yesterday: 49 °F (at 4:14 am)
Average temperature yesterday: 55 °F

High & Low Weather Summary for the Past Weeks

 TemperatureHumidityPressure
High66 °F (Feb 18, 2:54 pm)97% (Feb 19, 6:41 am)30.38 "Hg (Feb 19, 6:41 am)
Low12 °F (Feb 9, 9:54 pm)32% (Feb 19, 3:54 pm)29.65 "Hg (Feb 14, 11:54 pm)
Average41 °F72%29.95 "Hg
* Reported Feb 8 11:54 am — Feb 23 11:54 am, Fort Wayne, Weather by CustomWeather, © 2017

Note: Actual official high and low records may vary slightly from our data, if they occured in-between our weather recording intervals... More about our weather records

Advertising

Fort Wayne Weather History for the Previous 24 Hours

Scroll right to see more
 ConditionsComfort  
Time TempWeatherWind HumidityBarometerVisibility
11:54 am
Thu, Feb 23
62 °FPartly sunny.8 mph65%29.75 "Hg10 mi
10:54 am60 °FScattered clouds.6 mph72%29.76 "Hg10 mi
9:54 am58 °FPartly sunny.10 mph81%29.77 "Hg10 mi
9:25 am57 °FPartly sunny.10 mph87%29.76 "Hg8 mi
8:54 am55 °FPassing clouds.7 mph90%29.75 "Hg7 mi
8:40 am54 °FScattered clouds.9 mph90%29.76 "Hg7 mi
7:54 am52 °FFog.8 mph93%29.74 "Hg5 mi
7:38 am51 °FFog.8 mph92%29.74 "Hg5 mi
6:54 am52 °FPassing clouds.8 mph93%29.72 "Hg8 mi
5:54 am53 °FPassing clouds.9 mph89%29.72 "Hg10 mi
4:54 am56 °FPassing clouds.13 mph87%29.70 "Hg10 mi
3:54 am57 °FPassing clouds.14 mph83%29.70 "Hg9 mi
2:54 am57 °FPassing clouds.16 mph87%29.70 "Hg9 mi
1:54 am55 °FPassing clouds.13 mph90%29.70 "Hg7 mi
12:54 am54 °FFog.12 mph90%29.70 "Hg6 mi
11:54 pm
Wed, Feb 22
55 °FFog.9 mph90%29.72 "Hg6 mi
10:54 pm55 °FPassing clouds.10 mph87%29.72 "Hg9 mi
9:54 pm55 °FPassing clouds.10 mph87%29.72 "Hg7 mi
8:54 pm54 °FPassing clouds.9 mph86%29.74 "Hg10 mi
7:54 pm54 °FPassing clouds.9 mph90%29.75 "Hg8 mi
6:54 pm59 °FOvercast.7 mph81%29.76 "Hg10 mi
6:33 pm60 °FMostly cloudy.7 mph78%29.76 "Hg10 mi
5:54 pm61 °FPartly sunny.8 mph75%29.75 "Hg10 mi
4:54 pm61 °FOvercast.9 mph75%29.76 "Hg10 mi
3:54 pm62 °FOvercast.12 mph73%29.77 "Hg10 mi
2:54 pm63 °FOvercast.10 mph70%29.77 "Hg10 mi
1:54 pm62 °FOvercast.9 mph73%29.79 "Hg10 mi
Weather by CustomWeather, © 2017

See weather overviewHow to use our weather pages